| time (UTC) | temp C | wind direction | speed KPH | gust KPH | rain 1hr cm | rain 24hr cm | rain mn cm | humidity % | barometer mb |
| 20260507220704 | 12 | 112 | 1.6 | 1.6 | 0.00 | 0.15 | 0.00 | 100 | 986.7 |
| 20260507215703 | 12 | 62 | 0.0 | 1.6 | 0.00 | 0.15 | 0.00 | 100 | 986.7 |
| 20260507214704 | 12 | 80 | 1.6 | 3.2 | 0.00 | 0.15 | 0.00 | 100 | 986.8 |
| 20260507213705 | 12 | 41 | 1.6 | 1.6 | 0.00 | 0.15 | 0.00 | 100 | 986.7 |
| 20260507212727 | 12 | 100 | 1.6 | 1.6 | 0.00 | 0.15 | 0.00 | 100 | 986.7 |
| 20260507211704 | 12 | 303 | 1.6 | 1.6 | 0.00 | 0.15 | 0.00 | 100 | 986.9 |
| 20260507210706 | 12 | 135 | 0.0 | 1.6 | 0.00 | 0.15 | 0.00 | 100 | 986.7 |
| 20260507205704 | 12 | 135 | 1.6 | 1.6 | 0.00 | 0.15 | 0.00 | 100 | 986.6 |
| 20260507204712 | 12 | 135 | 0.0 | 0.0 | 0.00 | 0.15 | 0.00 | 100 | 986.6 |
| 20260507203716 | 13 | 90 | 1.6 | 1.6 | 0.00 | 0.15 | 0.00 | 100 | 986.6 |
| 20260507202711 | 12 | 111 | 0.0 | 1.6 | 0.00 | 0.15 | 0.00 | 100 | 986.7 |
| 20260507195703 | 13 | 90 | 0.0 | 0.0 | 0.00 | 0.15 | 0.00 | 100 | 987.0 |
| 20260507194704 | 13 | 135 | 0.0 | 0.0 | 0.00 | 0.15 | 0.00 | 100 | 987.2 |
| 20260507192705 | 13 | 135 | 0.0 | 0.0 | 0.00 | 0.15 | 0.00 | 100 | 987.5 |
| 20260507191702 | 13 | 0 | 0.0 | 0.0 | 0.00 | 0.15 | 0.00 | 100 | 987.3 |
| 20260507190703 | 12 | 0 | 0.0 | 0.0 | 0.00 | 0.15 | 0.00 | 100 | 987.6 |
| 20260507185720 | 12 | 0 | 0.0 | 0.0 | 0.00 | 0.15 | 0.00 | 100 | 987.2 |
| 20260507184714 | 12 | 90 | 0.0 | 0.0 | 0.00 | 0.15 | 0.00 | 100 | 987.7 |
| 20260507183704 | 13 | 45 | 0.0 | 0.0 | 0.00 | 0.15 | 0.00 | 100 | 987.8 |
| 20260507181703 | 12 | 0 | 0.0 | 0.0 | 0.00 | 0.15 | 0.00 | 100 | 987.7 |
| 20260507175704 | 12 | 135 | 0.0 | 0.0 | 0.00 | 0.15 | 0.00 | 100 | 988.0 |
| 20260507174703 | 12 | 0 | 0.0 | 0.0 | 0.00 | 0.15 | 0.00 | 100 | 988.1 |
| 20260507173704 | 13 | 0 | 0.0 | 0.0 | 0.00 | 0.15 | 0.00 | 100 | 987.9 |
| 20260507172725 | 12 | 0 | 0.0 | 0.0 | 0.00 | 0.15 | 0.00 | 100 | 988.1 |
| 20260507171704 | 12 | 135 | 1.6 | 1.6 | 0.00 | 0.15 | 0.00 | 100 | 988.3 |
| 20260507165703 | 12 | 135 | 0.0 | 0.0 | 0.00 | 0.15 | 0.00 | 100 | 988.6 |
| 20260507164703 | 12 | 0 | 0.0 | 0.0 | 0.00 | 0.15 | 0.00 | 100 | 988.6 |
| 20260507163717 | 12 | 0 | 0.0 | 0.0 | 0.05 | 0.15 | 0.00 | 100 | 988.7 |
| 20260507162703 | 12 | 0 | 0.0 | 0.0 | 0.05 | 0.15 | 0.00 | 100 | 988.9 |
| 20260507155717 | 12 | 135 | 0.0 | 0.0 | 0.05 | 0.15 | 0.00 | 100 | 989.1 |
| 20260507154704 | 11 | 164 | 0.0 | 1.6 | 0.05 | 0.15 | 0.00 | 100 | 989.4 |
| 20260507153705 | 11 | 0 | 0.0 | 0.0 | 0.00 | 0.08 | 0.00 | 100 | 989.3 |
| 20260507151704 | 12 | 135 | 0.0 | 1.6 | 0.00 | 0.08 | 0.00 | 100 | 989.3 |
| 20260507150703 | 12 | 0 | 0.0 | 0.0 | 0.03 | 0.08 | 0.00 | 100 | 988.9 |
| 20260507145705 | 11 | 135 | 0.0 | 0.0 | 0.03 | 0.08 | 0.00 | 100 | 989.1 |
| 20260507144704 | 12 | 135 | 0.0 | 0.0 | 0.03 | 0.08 | 0.00 | 100 | 989.1 |
| 20260507143705 | 12 | 0 | 0.0 | 0.0 | 0.03 | 0.08 | 0.00 | 100 | 989.2 |
| 20260507141704 | 12 | 0 | 0.0 | 0.0 | 0.03 | 0.08 | 0.00 | 100 | 989.3 |
| 20260507140702 | 12 | 135 | 0.0 | 0.0 | 0.03 | 0.05 | 0.00 | 100 | 989.5 |
| 20260507135703 | 12 | 0 | 0.0 | 0.0 | 0.03 | 0.05 | 0.00 | 100 | 989.5 |
| 20260507132710 | 12 | 0 | 0.0 | 0.0 | 0.03 | 0.05 | 0.00 | 100 | 989.6 |
| 20260507131703 | 12 | 0 | 0.0 | 0.0 | 0.03 | 0.05 | 0.00 | 100 | 989.5 |
| 20260507130702 | 12 | 135 | 0.0 | 0.0 | 0.00 | 0.03 | 0.00 | 100 | 989.6 |
| 20260507124703 | 12 | 0 | 0.0 | 0.0 | 0.00 | 0.03 | 0.00 | 100 | 989.2 |
| 20260507123709 | 12 | 0 | 0.0 | 0.0 | 0.00 | 0.03 | 0.00 | 100 | 989.2 |
| 20260507122705 | 12 | 0 | 0.0 | 0.0 | 0.00 | 0.03 | 0.00 | 100 | 989.2 |
| 20260507121704 | 12 | 0 | 0.0 | 0.0 | 0.00 | 0.03 | 0.00 | 100 | 989.3 |
| 20260507115705 | 12 | 0 | 0.0 | 0.0 | 0.00 | 0.03 | 0.00 | 100 | 989.1 |
| 20260507114703 | 12 | 0 | 0.0 | 0.0 | 0.00 | 0.03 | 0.00 | 100 | 989.2 |
| 20260507113704 | 12 | 0 | 0.0 | 0.0 | 0.00 | 0.03 | 0.00 | 100 | 988.9 |
| 20260507112710 | 12 | 0 | 0.0 | 0.0 | 0.00 | 0.03 | 0.00 | 100 | 988.7 |
| 20260507111704 | 12 | 0 | 0.0 | 0.0 | 0.00 | 0.03 | 0.00 | 100 | 988.8 |
| 20260507110708 | 12 | 90 | 0.0 | 0.0 | 0.00 | 0.03 | 0.00 | 100 | 988.5 |
| 20260507105705 | 12 | 0 | 0.0 | 0.0 | 0.00 | 0.03 | 0.00 | 100 | 988.4 |
| 20260507104706 | 12 | 0 | 0.0 | 0.0 | 0.00 | 0.03 | 0.00 | 100 | 988.0 |
| 20260507103705 | 12 | 135 | 0.0 | 0.0 | 0.00 | 0.03 | 0.00 | 100 | 988.3 |
| 20260507102704 | 12 | 0 | 0.0 | 0.0 | 0.00 | 0.03 | 0.00 | 100 | 988.3 |
| 20260507100706 | 12 | 0 | 0.0 | 0.0 | 0.00 | 0.03 | 0.00 | 100 | 988.2 |
| 20260507095702 | 12 | 0 | 0.0 | 0.0 | 0.00 | 0.03 | 0.00 | 100 | 988.1 |
| 20260507094709 | 13 | 0 | 0.0 | 0.0 | 0.00 | 0.03 | 0.00 | 100 | 988.1 |
| 20260507093704 | 13 | 0 | 0.0 | 0.0 | 0.00 | 0.03 | 0.00 | 100 | 987.7 |
| 20260507092704 | 13 | 0 | 0.0 | 0.0 | 0.00 | 0.03 | 0.00 | 100 | 987.9 |
| 20260507091704 | 13 | 0 | 0.0 | 0.0 | 0.00 | 0.03 | 0.00 | 100 | 988.1 |
| 20260507090704 | 13 | 0 | 0.0 | 0.0 | 0.00 | 0.03 | 0.00 | 100 | 988.0 |
| 20260507085703 | 13 | 0 | 0.0 | 0.0 | 0.00 | 0.03 | 0.00 | 100 | 987.9 |
| 20260507084703 | 13 | 0 | 0.0 | 0.0 | 0.00 | 0.03 | 0.00 | 100 | 987.8 |
| 20260507083705 | 13 | 0 | 0.0 | 0.0 | 0.00 | 0.03 | 0.00 | 100 | 987.6 |
| 20260507082702 | 13 | 0 | 0.0 | 0.0 | 0.00 | 0.03 | 0.00 | 100 | 987.7 |
| 20260507081703 | 14 | 90 | 0.0 | 0.0 | 0.00 | 0.03 | 0.00 | 100 | 987.4 |
| 20260507075705 | 14 | 155 | 0.0 | 1.6 | 0.00 | 0.03 | 0.00 | 100 | 987.4 |
| 20260507074710 | 15 | 90 | 0.0 | 0.0 | 0.00 | 0.03 | 0.00 | 100 | 987.2 |
| 20260507073704 | 16 | 45 | 0.0 | 0.0 | 0.00 | 0.03 | 0.00 | 100 | 987.3 |
| 20260507072703 | 16 | 0 | 0.0 | 0.0 | 0.00 | 0.03 | 0.00 | 100 | 986.8 |
| 20260507071705 | 17 | 135 | 0.0 | 0.0 | 0.00 | 0.03 | 0.00 | 100 | 986.4 |
| 20260507070704 | 17 | 135 | 0.0 | 1.6 | 0.00 | 0.03 | 0.00 | 100 | 986.5 |
| 20260507065711 | 17 | 0 | 0.0 | 0.0 | 0.00 | 0.03 | 0.00 | 100 | 986.4 |
| 20260507064702 | 17 | 0 | 0.0 | 0.0 | 0.00 | 0.03 | 0.00 | 100 | 986.3 |
| 20260507063704 | 17 | 0 | 0.0 | 0.0 | 0.00 | 0.03 | 0.00 | 100 | 986.4 |
| 20260507062709 | 17 | 90 | 0.0 | 0.0 | 0.00 | 0.03 | 0.00 | 100 | 986.7 |
| 20260507061703 | 17 | 180 | 0.0 | 0.0 | 0.00 | 0.03 | 0.00 | 100 | 986.8 |
| 20260507060705 | 17 | 0 | 0.0 | 0.0 | 0.00 | 0.03 | 0.00 | 100 | 986.8 |
| 20260507055703 | 17 | 0 | 0.0 | 0.0 | 0.00 | 0.03 | 0.00 | 100 | 986.7 |
| 20260507054708 | 17 | 0 | 0.0 | 0.0 | 0.00 | 0.03 | 0.00 | 100 | 986.9 |
| 20260507053702 | 17 | 0 | 0.0 | 0.0 | 0.00 | 0.03 | 0.00 | 100 | 986.5 |
| 20260507052704 | 17 | 0 | 0.0 | 0.0 | 0.00 | 0.03 | 0.00 | 100 | 986.3 |
| 20260507051704 | 17 | 0 | 0.0 | 0.0 | 0.03 | 0.03 | 0.00 | 100 | 985.6 |
| 20260507050702 | 17 | 0 | 0.0 | 0.0 | 0.03 | 0.03 | 0.00 | 100 | 985.4 |
| 20260507045704 | 17 | 0 | 0.0 | 0.0 | 0.03 | 0.03 | 0.00 | 100 | 985.7 |
| 20260507044704 | 17 | 0 | 0.0 | 0.0 | 0.03 | 0.03 | 0.00 | 100 | 986.0 |
| 20260507043708 | 17 | 0 | 0.0 | 0.0 | 0.03 | 0.03 | 0.00 | 100 | 986.4 |
| 20260507042705 | 17 | 0 | 0.0 | 0.0 | 0.05 | 0.03 | 0.00 | 100 | 986.3 |
| 20260507041704 | 17 | 180 | 0.0 | 0.0 | 0.03 | 0.00 | 0.00 | 100 | 986.5 |
| 20260507040703 | 17 | 0 | 0.0 | 0.0 | 0.03 | 0.00 | 0.00 | 100 | 986.2 |
| 20260507035705 | 17 | 0 | 0.0 | 0.0 | 0.03 | 0.08 | 0.00 | 100 | 986.2 |
| 20260507034704 | 17 | 0 | 0.0 | 0.0 | 0.03 | 0.08 | 0.00 | 100 | 986.3 |
| 20260507033710 | 18 | 0 | 0.0 | 0.0 | 0.03 | 0.08 | 0.00 | 100 | 986.9 |
| 20260507032704 | 18 | 0 | 0.0 | 0.0 | 0.00 | 0.05 | 0.00 | 100 | 986.7 |
| 20260507031712 | 18 | 0 | 0.0 | 0.0 | 0.00 | 0.05 | 0.00 | 100 | 986.9 |
| 20260507030705 | 18 | 0 | 0.0 | 0.0 | 0.00 | 0.05 | 0.00 | 100 | 986.2 |
| 20260507025704 | 18 | 0 | 0.0 | 0.0 | 0.00 | 0.05 | 0.00 | 100 | 986.2 |
| 20260507023706 | 18 | 0 | 0.0 | 0.0 | 0.00 | 0.05 | 0.00 | 100 | 986.4 |
| 20260507022705 | 18 | 135 | 0.0 | 0.0 | 0.00 | 0.05 | 0.00 | 100 | 986.5 |
| 20260507021704 | 18 | 0 | 0.0 | 0.0 | 0.00 | 0.05 | 0.00 | 100 | 986.2 |
| 20260507020704 | 18 | 135 | 0.0 | 0.0 | 0.00 | 0.05 | 0.00 | 100 | 985.9 |
| 20260507015702 | 18 | 0 | 0.0 | 0.0 | 0.00 | 0.05 | 0.00 | 100 | 985.4 |
| 20260507014704 | 18 | 0 | 0.0 | 0.0 | 0.00 | 0.05 | 0.00 | 100 | 985.6 |
| 20260507013704 | 18 | 0 | 0.0 | 0.0 | 0.00 | 0.05 | 0.00 | 100 | 985.9 |
| 20260507012705 | 18 | 0 | 0.0 | 0.0 | 0.00 | 0.05 | 0.00 | 100 | 986.0 |
| 20260507011718 | 18 | 0 | 0.0 | 0.0 | 0.00 | 0.05 | 0.00 | 100 | 985.7 |
| 20260507010705 | 18 | 0 | 0.0 | 0.0 | 0.00 | 0.05 | 0.00 | 100 | 986.1 |
| 20260507005706 | 18 | 0 | 0.0 | 0.0 | 0.00 | 0.05 | 0.00 | 100 | 986.2 |
| 20260507004704 | 18 | 0 | 0.0 | 0.0 | 0.00 | 0.05 | 0.00 | 100 | 986.1 |
| 20260507003719 | 18 | 0 | 0.0 | 0.0 | 0.00 | 0.05 | 0.00 | 100 | 986.1 |
| 20260507002753 | 19 | 0 | 0.0 | 0.0 | 0.00 | 0.05 | 0.00 | 100 | 985.8 |
| 20260507000710 | 19 | 135 | 0.0 | 0.0 | 0.00 | 0.05 | 0.00 | 100 | 986.1 |
| 20260506233710 | 20 | 63 | 1.6 | 1.6 | 0.00 | 0.05 | 0.00 | 100 | 985.3 |
| 20260506232704 | 20 | 0 | 0.0 | 0.0 | 0.00 | 0.05 | 0.00 | 100 | 985.9 |
| 20260506231719 | 21 | 90 | 0.0 | 0.0 | 0.00 | 0.05 | 0.00 | 100 | 986.0 |
| 20260506230704 | 21 | 0 | 0.0 | 0.0 | 0.00 | 0.05 | 0.00 | 100 | 985.8 |
| 20260506225711 | 21 | 77 | 1.6 | 1.6 | 0.00 | 0.05 | 0.00 | 100 | 985.6 |
| 20260506224704 | 21 | 51 | 1.6 | 3.2 | 0.00 | 0.05 | 0.00 | 100 | 985.4 |
| 20260506223704 | 21 | 118 | 0.0 | 1.6 | 0.00 | 0.05 | 0.00 | 100 | 985.0 |
| 20260506222703 | 21 | 49 | 1.6 | 1.6 | 0.00 | 0.05 | 0.00 | 100 | 985.4 |
| 20260506221703 | 21 | 0 | 0.0 | 0.0 | 0.00 | 0.05 | 0.00 | 100 | 985.3 |